Camp Point, IL

3:43 PM CST on January 24, 2017 (GMT -0600)
Quincy Regional-Baldwin

Weather History for KUIN - October, 2013

Change the Weather History Date:

Wednesday, October 30, 2013

  Actual Average Record
Temperature  
Mean Temperature 60 °F 50 °F  
Max Temperature 66 °F 60 °F 90 °F (1950)
Min Temperature 54 °F 40 °F 10 °F (1925)
Degree Days  
Heating Degree Days 5 15  
Month to date heating degree days 326 320  
Since 1 July heating degree days 363 407  
Cooling Degree Days 0 0  
Month to date cooling degree days 43 14  
Year to date cooling degree days 1242 1090  
Growing Degree Days 10 (Base 50)    
Moisture  
Dew Point 60 °F    
Average Humidity 94    
Maximum Humidity 100    
Minimum Humidity 87    
Precipitation  
Precipitation 1.07 in 0.10 in 1.42 in (1967)
Month to date precipitation 1.76 2.92  
Year to date precipitation 31.66 31.97  
Sea Level Pressure  
Sea Level Pressure 29.93 in    
Wind  
Wind Speed 8 mph (SSE)    
Max Wind Speed 18 mph    
Max Gust Speed 23 mph    
Visibility 3 miles    
Events Fog , Rain , Thunderstorm    
T = Trace of Precipitation, MM = Missing Value Source: NWS Daily Summary

Daily Weather History Graph

Daily Weather History Graph

Search for Another Location

Airport or City:

Trip Planner

Search our weather history database for the weather conditions in past years. The results will help you decide how hot, cold, wet, or windy it might be!

Date:

Astronomy

Oct. 30, 2013 Rise Set
Actual Time 7:31 AM CDT 6:04 PM CDT
Civil Twilight 7:03 AM CDT 6:32 PM CDT
Nautical Twilight 6:31 AM CDT 7:04 PM CDT
Astronomical Twilight 6:00 AM CDT 7:35 PM CDT
Moon 3:20 AM CDT (10/30) 3:49 PM CDT (10/30)
Length of Visible Light 11h 28m
Length of Day
10h 32m
Waning Crescent, 17% of the Moon is Illuminated
Oct 30
Waning Crescent
Nov 3
New
Nov 9
First Quarter
Nov 17
Full
Nov 25
Last Quarter

Hourly Weather History & Observations

Time (CDT) Temp. Dew Point Humidity Pressure Visibility Wind Dir Wind Speed Gust Speed Precip Events Conditions
12:54 AM 54.0 °F 53.1 °F 97% 30.04 in 1.5 mi ESE 10.4 mph - 0.00 in   Overcast
1:54 AM 54.0 °F 53.1 °F 97% 30.04 in 1.5 mi SE 5.8 mph - 0.01 in   Overcast
2:26 AM 53.6 °F 53.6 °F 100% 30.04 in 0.8 mi SE 5.8 mph - N/A   Mist
2:54 AM 54.0 °F 53.1 °F 97% 30.03 in 0.5 mi SE 5.8 mph - N/A Fog Fog
3:49 AM 55.4 °F 53.6 °F 94% 30.03 in 0.2 mi SE 3.5 mph - N/A Fog Fog
3:54 AM 55.0 °F 54.0 °F 96% 30.02 in 0.2 mi SE 4.6 mph - N/A Fog Fog
4:12 AM 55.4 °F 53.6 °F 94% 30.01 in 0.5 mi SE 5.8 mph - N/A Fog Fog
4:54 AM 55.0 °F 54.0 °F 96% 30.01 in 0.5 mi ESE 5.8 mph - N/A Fog Fog
5:54 AM 55.9 °F 54.0 °F 93% 30.02 in 0.5 mi SSE 3.5 mph - N/A Fog Fog
6:11 AM 55.4 °F 55.4 °F 100% 30.02 in 1.2 mi SSE 4.6 mph - N/A   Overcast
6:54 AM 57.0 °F 55.0 °F 93% 30.01 in 1.2 mi SSE 5.8 mph - 0.00 in   Overcast
7:54 AM 57.0 °F 55.9 °F 96% 30.01 in 0.8 mi SE 5.8 mph - N/A   Mist
8:22 AM 57.2 °F 57.2 °F 100% 30.01 in 1.0 mi SSE 6.9 mph - N/A   Overcast
8:54 AM 59.0 °F 57.9 °F 96% 30.00 in 2.0 mi SSE 8.1 mph - N/A   Overcast
8:59 AM 60.8 °F 57.2 °F 88% 30.01 in 2.5 mi SSE 9.2 mph - N/A   Overcast
9:08 AM 60.8 °F 59.0 °F 94% 30.02 in 3.0 mi South 6.9 mph - N/A   Overcast
9:30 AM 60.8 °F 57.2 °F 88% 30.01 in 2.5 mi SE 4.6 mph - N/A   Overcast
9:46 AM 60.8 °F 59.0 °F 94% 30.02 in 2.5 mi SSE 3.5 mph - N/A Thunderstorm Overcast
9:54 AM 60.1 °F 59.0 °F 96% 30.02 in 2.5 mi SSE 3.5 mph - 0.00 in Rain , Thunderstorm Light Rain
10:01 AM 60.8 °F 59.0 °F 94% 30.01 in 2.5 mi ESE 4.6 mph - 0.00 in   Overcast
10:24 AM 60.8 °F 59.0 °F 94% 30.00 in 2.5 mi SE 5.8 mph - 0.00 in Thunderstorm Overcast
10:46 AM 60.8 °F 59.0 °F 94% 30.01 in 2.5 mi ESE 5.8 mph - 0.00 in Thunderstorm Overcast
10:54 AM 61.0 °F 59.0 °F 93% 30.01 in 2.0 mi ESE 4.6 mph - 0.00 in Rain , Thunderstorm Light Rain
11:11 AM 60.8 °F 59.0 °F 94% 30.01 in 4.0 mi SE 6.9 mph - 0.01 in Rain , Thunderstorm Light Thunderstorms and Rain
11:25 AM 60.8 °F 59.0 °F 94% 29.99 in 2.5 mi East 6.9 mph - 0.03 in Rain , Thunderstorm Light Thunderstorms and Rain
11:37 AM 60.8 °F 59.0 °F 94% 29.98 in 1.5 mi East 6.9 mph - 0.05 in Rain , Thunderstorm Light Rain
11:54 AM 60.1 °F 57.9 °F 93% 30.00 in 0.8 mi SE 5.8 mph - 0.21 in Rain , Thunderstorm Heavy Thunderstorms and Rain
12:10 PM 60.8 °F 60.8 °F 100% 29.97 in 1.0 mi Variable 3.5 mph - 0.18 in Rain , Thunderstorm Thunderstorms and Rain
12:20 PM 60.8 °F 60.8 °F 100% 29.98 in 2.5 mi SSE 4.6 mph - 0.19 in Rain , Thunderstorm Light Rain
12:29 PM 60.8 °F 60.8 °F 100% 29.97 in 1.8 mi ESE 8.1 mph - 0.21 in Rain , Thunderstorm Rain
12:32 PM 62.6 °F 60.8 °F 94% 29.96 in 2.0 mi ESE 5.8 mph - 0.21 in Rain , Thunderstorm Light Rain
12:44 PM 62.6 °F 60.8 °F 94% 29.95 in 5.0 mi SE 6.9 mph - 0.22 in Rain , Thunderstorm Light Rain
12:54 PM 64.0 °F 61.0 °F 90% 29.93 in 5.0 mi SE 10.4 mph - 0.22 in Rain , Thunderstorm Light Rain
1:05 PM 64.4 °F 62.6 °F 94% 29.92 in 4.0 mi SE 11.5 mph - 0.00 in Rain Light Rain
1:21 PM 64.4 °F 62.6 °F 94% 29.90 in 4.0 mi SE 10.4 mph - 0.00 in Rain Light Rain
1:23 PM 64.4 °F 62.6 °F 94% 29.90 in 4.0 mi SE 11.5 mph - 0.00 in Rain Light Rain
1:54 PM 64.9 °F 63.0 °F 93% 29.87 in 6.0 mi SSE 8.1 mph - 0.00 in Rain Light Rain
2:15 PM 64.4 °F 62.6 °F 94% 29.87 in 5.0 mi SSE 9.2 mph - 0.00 in   Overcast
2:41 PM 64.4 °F 62.6 °F 94% 29.85 in 3.0 mi SSE 9.2 mph - 0.01 in Rain Light Rain
2:54 PM 64.9 °F 63.0 °F 93% 29.85 in 2.5 mi SSE 10.4 mph - 0.02 in Rain , Thunderstorm Thunderstorms and Rain
2:59 PM 64.4 °F 62.6 °F 94% 29.86 in 1.5 mi South 10.4 mph - 0.04 in Rain , Thunderstorm Thunderstorms and Rain
3:16 PM 64.4 °F 62.6 °F 94% 29.86 in 2.0 mi South 10.4 mph 23.0 mph 0.13 in Rain , Thunderstorm Rain
3:21 PM 64.4 °F 62.6 °F 94% 29.86 in 2.5 mi South 12.7 mph - 0.14 in Rain Rain
3:35 PM 64.4 °F 62.6 °F 94% 29.85 in 3.0 mi SSE 9.2 mph - 0.18 in Rain Light Rain
3:46 PM 64.4 °F 62.6 °F 94% 29.85 in 3.0 mi SSE 10.4 mph - 0.19 in Rain Light Rain
3:54 PM 64.9 °F 63.0 °F 93% 29.85 in 3.0 mi SSE 9.2 mph - 0.19 in Rain Light Rain
4:05 PM 64.4 °F 62.6 °F 94% 29.85 in 2.5 mi South 8.1 mph - 0.02 in Rain Rain
4:15 PM 66.2 °F 62.6 °F 88% 29.83 in 3.0 mi SSE 5.8 mph - 0.03 in Rain Light Rain
4:37 PM 66.2 °F 64.4 °F 94% 29.85 in 5.0 mi South 8.1 mph - 0.03 in Rain Light Rain
4:54 PM 66.0 °F 64.0 °F 93% 29.85 in 5.0 mi SSW 10.4 mph - 0.03 in   Overcast
5:06 PM 66.2 °F 64.4 °F 94% 29.86 in 6.0 mi SSW 10.4 mph - N/A   Overcast
5:54 PM 64.9 °F 63.0 °F 93% 29.84 in 6.0 mi South 5.8 mph - N/A   Overcast
6:54 PM 66.0 °F 63.0 °F 90% 29.82 in 10.0 mi South 8.1 mph - N/A   Overcast
7:54 PM 66.0 °F 63.0 °F 90% 29.83 in 9.0 mi South 8.1 mph - N/A   Mostly Cloudy
8:54 PM 64.9 °F 62.1 °F 90% 29.82 in 8.0 mi South 11.5 mph - 0.01 in Rain Light Rain
9:54 PM 64.9 °F 62.1 °F 90% 29.81 in 8.0 mi South 10.4 mph - 0.02 in Rain Light Rain
10:03 PM 64.4 °F 62.6 °F 94% 29.81 in 8.0 mi South 9.2 mph - 0.01 in Rain Light Rain
10:47 PM 64.4 °F 62.6 °F 94% 29.80 in 7.0 mi South 9.2 mph - 0.04 in Rain Light Rain
10:54 PM 64.0 °F 62.1 °F 93% 29.79 in 8.0 mi South 10.4 mph - 0.04 in Rain Light Rain
10:57 PM 64.4 °F 62.6 °F 94% 29.79 in 8.0 mi South 10.4 mph - 0.00 in Rain Light Rain
11:28 PM 64.4 °F 62.6 °F 94% 29.78 in 5.0 mi South 10.4 mph - 0.02 in Rain Light Rain
11:43 PM 64.4 °F 62.6 °F 94% 29.77 in 2.0 mi South 8.1 mph - 0.09 in Rain Heavy Rain
11:54 PM 64.0 °F 62.1 °F 93% 29.75 in 4.0 mi South 10.4 mph - 0.11 in Rain Light Rain